�������l�o���
Date,Time,MP-1(��Sv/h),MP-2(��Sv/h),MP-3(��Sv/h),MP-4(��Sv/h),MP-5(��Sv/h),MP-6(��Sv/h),MP-7(��Sv/h),MP-8(��Sv/h),����,����(m/s),���J
2020/05/16,00:00,0.723,1.046,0.684,1.274,0.911,0.407,0.707,0.666,�k�k��,4.7,��
2020/05/16,00:10,0.722,1.045,0.683,1.274,0.910,0.406,0.709,0.667,�k�k��,6.3,��
2020/05/16,00:20,0.722,1.043,0.683,1.273,0.910,0.405,0.709,0.668,�k,6.3,��
2020/05/16,00:30,0.721,1.045,0.681,1.274,0.909,0.405,0.707,0.665,�k,6.0,��
2020/05/16,00:40,0.722,1.042,0.682,1.274,0.909,0.404,0.709,0.665,�k,6.9,��
2020/05/16,00:50,0.723,1.043,0.684,1.273,0.909,0.405,0.709,0.666,�k,5.8,��
2020/05/16,01:00,0.721,1.043,0.681,1.272,0.910,0.404,0.709,0.665,�k�k��,5.8,��
2020/05/16,01:10,0.722,1.044,0.685,1.273,0.911,0.405,0.707,0.666,�k,5.6,��
2020/05/16,01:20,0.722,1.044,0.684,1.273,0.909,0.404,0.708,0.667,�k�k��,7.0,��
2020/05/16,01:30,0.722,1.043,0.682,1.272,0.911,0.404,0.706,0.666,�k�k��,6.3,��
2020/05/16,01:40,0.722,1.042,0.682,1.272,0.909,0.404,0.708,0.665,�k�k��,6.5,��
2020/05/16,01:50,0.723,1.041,0.682,1.273,0.908,0.405,0.706,0.667,�k�k��,7.2,��
2020/05/16,02:00,0.721,1.043,0.681,1.270,0.906,0.404,0.705,0.666,�k�k��,7.1,��
2020/05/16,02:10,0.724,1.041,0.682,1.270,0.909,0.406,0.706,0.666,�k,6.8,��
2020/05/16,02:20,0.722,1.040,0.683,1.273,0.907,0.405,0.706,0.665,�k�k��,5.0,��
2020/05/16,02:30,0.720,1.040,0.682,1.272,0.909,0.404,0.706,0.667,�k�k��,5.7,��
2020/05/16,02:40,0.720,1.045,0.683,1.270,0.910,0.404,0.705,0.664,�k�k��,5.2,��
2020/05/16,02:50,0.721,1.039,0.681,1.272,0.908,0.403,0.706,0.666,�k�k��,4.0,��
2020/05/16,03:00,0.720,1.041,0.682,1.272,0.909,0.403,0.707,0.666,�k�k��,3.7,��
2020/05/16,03:10,0.720,1.043,0.682,1.272,0.909,0.404,0.706,0.665,�k�k��,4.3,��
2020/05/16,03:20,0.721,1.042,0.680,1.272,0.910,0.404,0.707,0.667,�k�k��,4.4,��
2020/05/16,03:30,0.721,1.044,0.682,1.270,0.909,0.403,0.706,0.667,�k�k��,4.5,��
2020/05/16,03:40,0.721,1.042,0.682,1.270,0.908,0.405,0.706,0.665,�k�k��,4.5,��
2020/05/16,03:50,0.721,1.042,0.681,1.273,0.908,0.403,0.705,0.665,�k��,4.4,��
2020/05/16,04:00,0.720,1.041,0.682,1.270,0.909,0.403,0.706,0.665,�k�k��,4.5,��
2020/05/16,04:10,0.721,1.042,0.685,1.272,0.908,0.403,0.706,0.667,�k�k��,4.8,��
2020/05/16,04:20,0.721,1.041,0.682,1.269,0.908,0.405,0.706,0.665,�k�k��,4.2,��
2020/05/16,04:30,0.722,1.040,0.680,1.271,0.907,0.403,0.703,0.667,�k��,5.7,��
2020/05/16,04:40,0.723,1.041,0.682,1.271,0.910,0.405,0.706,0.666,�k�k��,7.1,��
2020/05/16,04:50,0.720,1.041,0.683,1.273,0.909,0.403,0.706,0.666,�k�k��,5.6,��
2020/05/16,05:00,0.723,1.042,0.683,1.269,0.909,0.403,0.704,0.666,�k�k��,3.2,��
2020/05/16,05:10,0.722,1.039,0.682,1.272,0.909,0.404,0.707,0.668,�k�k��,4.0,��
2020/05/16,05:20,0.720,1.042,0.682,1.271,0.911,0.405,0.707,0.666,�k��,2.6,��
2020/05/16,05:30,0.719,1.041,0.683,1.275,0.909,0.404,0.708,0.666,���k��,2.3,��
2020/05/16,05:40,0.722,1.041,0.682,1.272,0.909,0.404,0.708,0.666,�k��,2.6,��
2020/05/16,05:50,0.720,1.042,0.683,1.271,0.910,0.404,0.708,0.666,�k�k��,3.0,��
2020/05/16,06:00,0.722,1.042,0.682,1.271,0.909,0.405,0.704,0.666,�k,3.8,��
2020/05/16,06:10,0.722,1.043,0.683,1.273,0.910,0.405,0.706,0.666,�k,3.3,��
2020/05/16,06:20,0.721,1.041,0.682,1.273,0.910,0.405,0.707,0.667,�k,2.2,��
2020/05/16,06:30,0.721,1.043,0.681,1.271,0.910,0.404,0.708,0.666,�k�k��,1.7,��
2020/05/16,06:40,0.721,1.044,0.683,1.271,0.909,0.405,0.707,0.667,�k��,1.9,��
2020/05/16,06:50,0.721,1.041,0.682,1.273,0.910,0.405,0.708,0.666,�k�k��,4.8,�L
2020/05/16,07:00,0.722,1.041,0.682,1.272,0.910,0.405,0.706,0.666,��쐼,0.6,��
2020/05/16,07:10,0.723,1.042,0.684,1.272,0.908,0.404,0.706,0.666,��쐼,2.0,��
2020/05/16,07:20,0.722,1.044,0.683,1.269,0.907,0.402,0.705,0.665,��쓌,1.5,��
2020/05/16,07:30,0.722,1.042,0.684,1.271,0.908,0.404,0.705,0.664,��,2.5,�L
2020/05/16,07:40,0.723,1.040,0.683,1.270,0.907,0.403,0.705,0.664,��,2.0,��
2020/05/16,07:50,0.719,1.043,0.681,1.273,0.908,0.403,0.705,0.664,�k��,1.9,��
2020/05/16,08:00,0.720,1.038,0.683,1.271,0.907,0.402,0.704,0.663,�k�k��,3.1,��
2020/05/16,08:10,0.720,1.038,0.681,1.273,0.908,0.404,0.706,0.665,�k�k��,2.8,��
2020/05/16,08:20,0.719,1.040,0.683,1.273,0.907,0.404,0.704,0.665,�k��,2.6,��
2020/05/16,08:30,0.718,1.037,0.683,1.270,0.907,0.405,0.706,0.665,�k��,2.0,��
2020/05/16,08:40,0.721,1.036,0.683,1.272,0.908,0.405,0.703,0.664,���k��,1.7,��
2020/05/16,08:50,0.720,1.035,0.681,1.272,0.909,0.405,0.705,0.664,��,1.7,��
2020/05/16,09:00,0.719,1.039,0.682,1.272,0.905,0.405,0.707,0.664,��,1.4,��
2020/05/16,09:10,0.720,1.038,0.682,1.272,0.910,0.404,0.707,0.664,���쓌,2.2,��
2020/05/16,09:20,0.721,1.036,0.682,1.271,0.909,0.404,0.705,0.664,���쓌,2.0,��
2020/05/16,09:30,0.720,1.033,0.684,1.270,0.907,0.405,0.705,0.664,���k��,1.5,��
2020/05/16,09:40,0.719,1.036,0.682,1.270,0.906,0.405,0.706,0.665,���쓌,2.5,��
2020/05/16,09:50,0.718,1.033,0.680,1.274,0.909,0.404,0.705,0.664,���쓌,2.3,��
2020/05/16,10:00,0.718,1.036,0.681,1.273,0.907,0.403,0.707,0.665,���쓌,2.0,��
2020/05/16,10:10,0.719,1.032,0.680,1.272,0.907,0.403,0.707,0.661,�쓌,2.5,�L
2020/05/16,10:20,0.719,1.032,0.679,1.272,0.907,0.403,0.706,0.664,�쓌,2.6,��
2020/05/16,10:30,0.719,1.035,0.680,1.269,0.908,0.404,0.706,0.664,���쓌,3.4,��
2020/05/16,10:40,0.721,1.035,0.679,1.274,0.907,0.403,0.706,0.663,�쓌,3.8,��
2020/05/16,10:50,0.718,1.036,0.681,1.272,0.908,0.405,0.708,0.664,��쓌,4.7,��
2020/05/16,11:00,0.719,1.038,0.680,1.270,0.908,0.403,0.706,0.663,��쓌,4.1,��
2020/05/16,11:10,0.720,1.037,0.679,1.270,0.911,0.403,0.707,0.663,��쓌,5.9,��
2020/05/16,11:20,0.720,1.039,0.682,1.271,0.909,0.405,0.706,0.663,��쓌,5.6,��
2020/05/16,11:30,0.722,1.038,0.681,1.272,0.907,0.404,0.707,0.664,��쓌,6.7,��
2020/05/16,11:40,0.720,1.037,0.681,1.270,0.909,0.405,0.706,0.664,��쓌,6.9,��
2020/05/16,11:50,0.721,1.041,0.681,1.268,0.909,0.405,0.707,0.664,��쓌,7.1,��
2020/05/16,12:00,0.721,1.041,0.681,1.270,0.910,0.405,0.707,0.664,��쓌,7.8,��
2020/05/16,12:10,0.722,1.040,0.681,1.266,0.907,0.405,0.707,0.663,��쓌,9.3,��
2020/05/16,12:20,0.722,1.042,0.680,1.270,0.909,0.406,0.707,0.664,��쓌,9.0,�L
2020/05/16,12:30,0.722,1.039,0.682,1.270,0.908,0.406,0.707,0.663,��쓌,9.3,�L
2020/05/16,12:40,0.720,1.040,0.682,1.269,0.907,0.405,0.708,0.663,��쓌,9.4,�L
2020/05/16,12:50,0.721,1.040,0.681,1.269,0.907,0.404,0.707,0.665,��,8.8,��
2020/05/16,13:00,0.720,1.040,0.683,1.270,0.909,0.406,0.706,0.664,��,9.6,��
2020/05/16,13:10,0.722,1.041,0.682,1.272,0.908,0.405,0.708,0.664,��쓌,11.1,��
2020/05/16,13:20,0.720,1.039,0.682,1.270,0.907,0.405,0.708,0.662,��쓌,10.2,��
2020/05/16,13:30,0.722,1.037,0.683,1.272,0.908,0.406,0.709,0.662,��,9.0,��
2020/05/16,13:40,0.723,1.036,0.684,1.274,0.908,0.406,0.708,0.662,��,8.1,��
2020/05/16,13:50,0.722,1.036,0.680,1.273,0.909,0.405,0.709,0.664,��,10.3,��
2020/05/16,14:00,0.723,1.035,0.684,1.272,0.909,0.406,0.709,0.664,��,10.6,��
2020/05/16,14:10,0.722,1.037,0.683,1.273,0.908,0.406,0.708,0.663,��,9.8,�L
2020/05/16,14:20,0.722,1.037,0.684,1.272,0.908,0.406,0.707,0.664,��,8.5,��
2020/05/16,14:30,0.722,1.039,0.682,1.273,0.910,0.405,0.710,0.664,��,10.3,�L
2020/05/16,14:40,0.720,1.038,0.683,1.275,0.909,0.407,0.709,0.664,��,11.3,��
2020/05/16,14:50,0.722,1.043,0.681,1.273,0.909,0.405,0.706,0.665,��,10.3,�L
2020/05/16,15:00,0.721,1.038,0.683,1.271,0.908,0.406,0.707,0.664,��,10.2,�L
2020/05/16,15:10,0.722,1.038,0.681,1.271,0.909,0.406,0.708,0.665,��,11.1,��
2020/05/16,15:20,0.722,1.039,0.682,1.274,0.909,0.407,0.708,0.666,��,8.3,��
2020/05/16,15:30,0.722,1.038,0.681,1.273,0.908,0.407,0.709,0.665,��,10.3,��
2020/05/16,15:40,0.721,1.040,0.682,1.273,0.909,0.405,0.708,0.664,��,10.8,��
2020/05/16,15:50,0.722,1.041,0.683,1.274,0.908,0.406,0.708,0.664,��,9.6,�L
2020/05/16,16:00,0.720,1.040,0.682,1.273,0.909,0.408,0.707,0.665,��,12.8,�L
2020/05/16,16:10,0.722,1.040,0.682,1.275,0.908,0.408,0.709,0.663,-,CALM,�L
2020/05/16,16:20,0.722,1.040,0.683,1.273,0.908,0.408,0.707,0.666,��,11.1,�L
2020/05/16,16:30,0.723,1.038,0.682,1.273,0.907,0.410,0.706,0.665,��,14.6,�L
2020/05/16,16:40,0.724,1.038,0.684,1.273,0.906,0.410,0.708,0.664,��,8.0,�L
2020/05/16,16:50,0.724,1.037,0.682,1.274,0.906,0.410,0.707,0.664,��,7.8,�L
2020/05/16,17:00,0.723,1.037,0.683,1.273,0.906,0.410,0.707,0.662,��,8.1,�L
2020/05/16,17:10,0.723,1.039,0.682,1.272,0.906,0.411,0.705,0.663,��,7.8,�L
2020/05/16,17:20,0.722,1.038,0.684,1.272,0.903,0.411,0.707,0.665,��,10.9,�L
2020/05/16,17:30,0.723,1.035,0.682,1.274,0.905,0.411,0.707,0.663,��쓌,9.5,�L
2020/05/16,17:40,0.724,1.037,0.682,1.273,0.903,0.410,0.705,0.664,��,7.3,�L
2020/05/16,17:50,0.721,1.037,0.683,1.274,0.901,0.409,0.707,0.665,��,7.1,�L
2020/05/16,18:00,0.722,1.037,0.683,1.271,0.903,0.409,0.708,0.665,��,7.3,�L
2020/05/16,18:10,0.720,1.037,0.681,1.270,0.904,0.410,0.706,0.664,��,4.8,��
2020/05/16,18:20,0.718,1.038,0.683,1.269,0.903,0.410,0.707,0.664,��쓌,5.5,��
2020/05/16,18:30,0.718,1.034,0.681,1.270,0.902,0.408,0.707,0.666,��,7.0,��
2020/05/16,18:40,0.718,1.033,0.682,1.270,0.904,0.408,0.706,0.664,��쓌,7.0,��
2020/05/16,18:50,0.723,1.035,0.680,1.270,0.899,0.407,0.705,0.663,��쓌,7.5,��
2020/05/16,19:00,0.717,1.032,0.681,1.268,0.902,0.408,0.707,0.664,��,8.5,��
2020/05/16,19:10,0.718,1.032,0.680,1.270,0.901,0.409,0.706,0.664,��쓌,9.5,��
2020/05/16,19:20,0.720,1.034,0.679,1.268,0.899,0.406,0.706,0.663,��,9.3,��
2020/05/16,19:30,0.718,1.034,0.679,1.269,0.903,0.407,0.706,0.665,��,8.2,�L
2020/05/16,19:40,0.718,1.036,0.679,1.271,0.899,0.408,0.707,0.666,��,8.3,�L
2020/05/16,19:50,0.718,1.034,0.679,1.269,0.901,0.407,0.705,0.664,��,8.4,�L
2020/05/16,20:00,0.717,1.034,0.679,1.268,0.902,0.407,0.706,0.662,��,7.7,�L
2020/05/16,20:10,0.717,1.037,0.680,1.268,0.901,0.408,0.706,0.664,��,7.9,�L
2020/05/16,20:20,0.720,1.036,0.678,1.269,0.900,0.407,0.706,0.664,��,6.8,�L
2020/05/16,20:30,0.719,1.040,0.679,1.269,0.902,0.408,0.706,0.665,��,6.6,��
2020/05/16,20:40,0.719,1.039,0.679,1.269,0.902,0.407,0.708,0.665,��,7.2,��
2020/05/16,20:50,0.721,1.037,0.679,1.269,0.903,0.407,0.708,0.666,��쐼,7.1,��
2020/05/16,21:00,0.721,1.038,0.679,1.267,0.900,0.408,0.707,0.663,��,7.0,��
2020/05/16,21:10,0.720,1.038,0.678,1.269,0.903,0.407,0.706,0.664,��,6.7,��
2020/05/16,21:20,0.719,1.038,0.679,1.269,0.903,0.409,0.707,0.667,��,7.4,�L
2020/05/16,21:30,0.720,1.037,0.678,1.267,0.902,0.408,0.709,0.666,��,5.6,�L
2020/05/16,21:40,0.717,1.038,0.678,1.268,0.901,0.407,0.709,0.665,��,6.0,��
2020/05/16,21:50,0.718,1.038,0.679,1.269,0.901,0.407,0.708,0.665,��,7.0,�L
2020/05/16,22:00,0.719,1.039,0.678,1.271,0.901,0.408,0.707,0.664,��,5.9,��
2020/05/16,22:10,0.720,1.037,0.680,1.269,0.902,0.409,0.706,0.666,��,6.9,��
2020/05/16,22:20,0.717,1.039,0.680,1.269,0.901,0.407,0.707,0.664,��,6.2,��
2020/05/16,22:30,0.719,1.037,0.679,1.267,0.900,0.407,0.708,0.665,��,6.2,��
2020/05/16,22:40,0.718,1.038,0.680,1.266,0.902,0.407,0.706,0.666,��,6.7,��
2020/05/16,22:50,0.719,1.035,0.678,1.269,0.901,0.407,0.708,0.664,��,6.1,��
2020/05/16,23:00,0.720,1.039,0.679,1.269,0.902,0.410,0.709,0.666,��,5.5,��
2020/05/16,23:10,0.720,1.037,0.681,1.270,0.902,0.409,0.708,0.666,��,5.0,��
2020/05/16,23:20,0.719,1.036,0.679,1.269,0.901,0.410,0.709,0.667,��,4.7,��
2020/05/16,23:30,0.720,1.038,0.681,1.269,0.901,0.409,0.708,0.665,��,5.2,��
2020/05/16,23:40,0.719,1.036,0.679,1.268,0.906,0.409,0.709,0.664,��쓌,4.4,��
2020/05/16,23:50,0.719,1.035,0.680,1.268,0.905,0.408,0.708,0.665,��,5.7,��
